Terug naar catalogus

STARLINK-3119

ActiefCommunicatieVLEO
NORAD 49145·PAYLOAD·🇺🇸 United States

Gelanceerd Sep 14, 2021 vanaf Vandenberg Space Force Base

Loading…

Volgende Passages (komende 24 uur)

TLE

VersSource: CelesTrak SupGP

Epoch: Sep 14, 2026, 21:37 UTC

1 49145C 21082R   26257.90118056 -.00022093  00000+0 -18516-2 0  2575
2 49145  70.0002 137.3707 0002867 271.7990  11.4851 14.98339191    19

Volg STARLINK-3119 in realtime met AllMySat

Download on the App Store